CAPE
1681 1201 1518 1644 1304 1364 1542 1382 1804 1879 2040 1937 1899 1618 1532 1591 1963 2119 1929 2264 2260 1698
1188 1270 1293 1373 1417 1316 1575 1464 1533 1723 1688 2019 1888 1910 1831 1227 1987 2292 2349 2087 2128 2152
1171 1277 1354 1409 1507 1470 1403 1492 1583 1503 1563 1851 1971 1986 1986 1880 2122 2172 2043 1693 2311 2418
958 1374 1479 1390 1350 1622 1556 1621 1628 1528 1236 1260 1422 1772 2359 2279 1779 2074 2101 1940 2177 2273
1076 1276 1414 1489 1501 1531 1433 1687 1645 1539 1713 1781 1674 1865 2103 2056 1908 2057 1902 1706 1899 1949
912 976 1073 1313 1439 1498 1418 1782 1711 1550 1662 1783 1408 1219 1529 1806 1777 1978 1908 1842 1905 1700
757 1106 1121 1302 1233 1484 1603 1622 1822 1637 1586 1567 1198 1049 1045 1144 1588 1904 1626 1557 1872 1861
197 324 542 694 740 708 1169 1339 1612 1631 1511 1488 1289 859 1000 1135 1133 1247 1970 2058 1839 1851
81 142 258 301 291 294 366 616 723 796 891 823 990 761 771 750 1783 2083 2224 2195 2229 2105
85 37 30 82 126 135 181 207 256 325 460 266 221 372 494 725 1452 1976 2113 1968 1805 1674
26 14 9 56 73 55 57 47 117 334 33 1 57 221 439 494 933 1147 853 670 703 711
10 7 6 29 43 57 34 4 218 19 22 25 17 49 116 236 291 224 195 275 230 245
99 46 12 1 40 17 2 15 6 22 53 28 5 14 43 64 57 73 74 62 47 16
92 11 0 0 0 0 0 0 2 10 16 5 5 2 12 56 75 68 59 40 38 10
CIN
-22 -14 -20 -28 -23 -13 -9 -5 -15 -13 -16 -17 -19 -23 -31 -15 -9 -16 -13 -21 -29 -23
-31 -33 -21 -35 -42 -26 -39 -26 -22 -19 -17 -6 -19 -18 -20 -14 -7 -7 -8 -16 -24 -15
-24 -30 -28 -33 -30 -36 -41 -40 -35 -33 -27 -21 -23 -10 -12 -5 -8 -10 -5 -5 -7 -7
-20 -17 -20 -23 -27 -24 -32 -35 -35 -49 -53 -41 -31 -19 -3 -5 -5 -7 -5 -15 -8 -7
-12 -11 -9 -18 -12 -16 -16 -20 -28 -42 -37 -29 -35 -17 -5 -2 -5 -7 -4 -3 -9 -8
-8 -15 -9 -7 -12 -16 -25 -11 -15 -26 -30 -30 -38 -35 -26 -13 -6 -4 -4 -3 -10 -4
-24 -11 -9 -7 -17 -10 -15 -18 -13 -18 -17 -25 -47 -43 -35 -26 -14 -9 -7 -4 -3 -3
-39 -41 -20 -17 -28 -49 -30 -23 -16 -18 -18 -21 -26 -31 -29 -21 -16 -13 -5 -4 -2 -1
-1 -21 -22 -29 -57 -74 -72 -49 -40 -43 -41 -44 -27 -66 -67 -26 -6 -0 -1 -0 -3 -0
-0 -1 -5 -54 -82 -124 -95 -90 -62 -50 -41 -85 -63 -78 -86 -72 -30 -15 -3 -6 -3 -6
-38 -46 -15 -29 -36 -58 -154 -141 -66 -8 -39 -4 -152 -119 -112 -98 -30 -7 -16 -18 -16 -9
-56 -13 -39 -42 -53 -59 -50 -30 -3 -24 -17 -27 -40 -115 -119 -67 -65 -62 -79 -44 -68 -64
-13 -23 -28 -34 -8 -50 -10 -65 -29 -6 -4 -7 -23 -81 -13 -65 -77 -70 -55 -51 -61 -65
-19 -21 -0 -0 -0 -0 -0 -0 -0 -1 -25 -80 -12 -44 -75 -26 -43 -23 -32 -39 -35 -86
Wind_Speed
6 8 9 7 8 10 9 8 7 6 5 5 6 7 7 7 7 8 7 6 6 7
11 9 9 12 10 12 11 9 8 8 5 6 4 6 7 6 6 8 7 7 5 3
12 11 12 13 13 13 15 13 11 10 9 8 6 5 5 7 7 7 8 6 5 5
14 14 14 12 14 15 13 15 15 13 12 10 7 7 7 7 5 4 5 8 7 5
15 17 15 15 14 13 14 18 15 14 16 13 13 11 8 8 8 5 7 7 6 7
20 20 20 20 17 16 14 16 16 17 18 16 16 15 11 10 11 9 8 8 9 8
23 24 24 25 25 22 20 19 20 18 19 19 18 17 17 14 12 10 10 11 10 9
27 27 29 32 35 35 33 31 29 26 22 19 19 20 18 16 15 14 14 14 12 10
nan 27 37 36 38 38 40 39 38 36 34 31 27 29 27 21 19 19 17 15 16 16
nan nan nan nan 41 41 41 42 46 43 41 42 36 34 27 26 22 24 24 26 25 24
nan nan nan nan nan nan nan nan 45 48 nan nan nan 44 43 38 40 38 41 41 40 39
nan nan nan nan nan nan nan nan 35 nan nan nan nan nan 51 44 49 53 45 48 45 41
nan nan nan nan nan nan nan nan nan nan nan nan nan nan nan nan nan nan nan nan nan nan
nan nan nan nan nan nan nan nan nan nan nan nan nan nan nan nan nan nan nan nan nan nan
Wind_Direction
229 236 242 225 219 200 202 215 216 200 210 225 225 234 233 226 226 227 217 207 191 194
219 234 260 263 233 221 212 226 227 230 221 235 222 233 239 220 224 228 225 227 227 196
229 238 251 270 268 246 237 237 234 228 233 233 239 232 250 231 230 230 236 230 232 217
229 240 249 256 271 274 268 248 239 251 250 238 235 251 254 264 251 246 262 261 254 241
238 235 238 247 253 267 272 265 254 257 251 254 258 257 259 269 261 263 253 264 270 271
233 240 233 234 240 249 259 267 259 257 258 263 257 254 249 247 248 248 248 257 257 242
237 246 241 239 239 243 251 257 262 259 253 252 252 250 249 247 240 233 233 236 241 235
240 249 249 247 246 245 246 251 256 257 257 254 253 252 255 253 241 243 238 237 241 238
nan 243 251 255 249 246 249 250 251 252 254 252 248 234 242 246 251 255 246 241 238 234
nan nan nan nan 258 242 248 252 253 251 251 250 243 233 240 252 256 251 246 240 235 233
nan nan nan nan nan nan nan nan 254 255 nan nan nan 239 239 245 248 251 248 245 245 246
nan nan nan nan nan nan nan nan 276 nan nan nan nan nan 247 258 259 252 244 246 247 248
nan nan nan nan nan nan nan nan nan nan nan nan nan nan nan nan nan nan nan nan nan nan
nan nan nan nan nan nan nan nan nan nan nan nan nan nan nan nan nan nan nan nan nan nan